Location: Darlington Observatory
(36.4817°N, 105.8156°W)
Time: 16:44:19
(UTC-06:00)

NOSS 3-3 (A) - Visible Passes

Search period start: 30 August 2015 00:00
Search period end: 09 September 2015 00:00
Orbit: 955 x 1258 km, 63.4° (Epoch: 08 August)

Date Brightness Start Highest point End Pass type
(mag) Time Alt. Az. Time Alt. Az. Time Alt. Az.
01 Sep 6.7 05:48:55 10° SE 05:51:58 15° ESE 05:55:29 10° ENE visible
03 Sep 5.6 06:07:24 10° S 06:13:02 37° ESE 06:19:02 10° NE visible
04 Sep 6.3 05:24:13 10° SSE 05:28:40 21° ESE 05:33:29 10° ENE visible
05 Sep 6.7 04:42:56 10° ESE 04:44:21 11° ESE 04:46:17 10° E visible
06 Sep 4.9 05:43:47 10° S 05:49:49 51° ESE 05:56:13 10° NE visible
07 Sep 5.7 05:00:07 10° S 05:05:23 30° ESE 05:11:01 10° NE visible
08 Sep 6.3 04:17:21 10° SE 04:21:02 17° ESE 04:25:08 10° ENE visible
08 Sep 4.1 06:04:58 10° SW 06:11:16 72° NW 06:17:58 10° NNE visible
